Date String (YYYY-MM-DD hh:mm:ss) UTC,Instrument flags,absolute air pressure of the measurement (hPa),sample flow rate (lpm),inlet stack bypass flow (lpm),air temperature of the measurement (°C),ambient temperature measured by the external sensor (°C),aerosol sample conditioner tube jacket temperature (°C),OPC LED temperature (°C),internal box temperature (°C),relative humidity of the measurement (%),span deviation,mass concentration of particles derived from Lorenz-Mie calculation of OPC scattering (μg/m³),mass concentration of particles derived from Lorenz-Mie calculation of OPC scattering (μg/m³),mass concentration of particles derived from Lorenz-Mie calculation of OPC scattering (μg/m³)
DateTimeUTC,F1_M11,P_M11,Q1_M11,Q2_M11,T1_M11,T2_M11,T3_M11,T4_M11,T5_M11,U1_M11,ZSPAN_M11,X0_M11,X2_M11,X1_M11
2024-01-20 00:00:00,SystemResetWarning,0833.0,5.00,000.00,020.6,019.8,000.0,028.9,021.9,11.5,0000.0,0016.06,0008.93,0008.04
2024-01-20 00:01:00,SystemResetWarning,0833.0,5.00,000.00,020.6,019.8,000.0,028.9,021.9,11.5,0000.0,0016.64,0008.91,0008.03
2024-01-20 00:02:00,SystemResetWarning,0832.9,5.00,000.00,020.6,019.8,000.0,028.9,021.9,11.5,0000.0,0016.97,0008.90,0008.02
2024-01-20 00:03:00,SystemResetWarning,0832.9,5.00,000.00,020.6,019.8,000.0,028.9,021.9,11.5,0000.0,0016.71,0008.90,0008.01
2024-01-20 00:04:00,SystemResetWarning,0832.9,5.00,000.00,020.6,019.8,000.0,028.9,021.9,11.5,0000.0,0017.01,0008.89,0008.00
2024-01-20 00:05:00,SystemResetWarning,0833.0,5.00,000.00,020.6,019.8,000.0,028.9,021.9,11.5,0000.0,0017.14,0008.85,0008.00
2024-01-20 00:06:00,SystemResetWarning,0833.0,5.00,000.00,020.6,019.8,000.0,028.9,021.9,11.5,0000.0,0016.90,0008.84,0008.01
2024-01-20 00:07:00,SystemResetWarning,0832.9,5.00,000.00,020.6,019.8,000.0,028.9,021.9,11.5,0002.2,0016.99,0008.86,0008.01
2024-01-20 00:08:00,SystemResetWarning,0832.9,5.00,000.00,020.6,019.8,000.0,028.9,021.9,11.5,0001.9,0016.95,0008.84,0008.01
2024-01-20 00:09:00,SystemResetWarning,0833.0,5.00,000.00,020.6,019.8,000.0,028.9,021.9,11.5,0003.5,0016.85,0008.84,0008.02
2024-01-20 00:10:00,SystemResetWarning,0833.0,5.00,000.00,020.6,019.8,000.0,028.9,021.9,11.5,0003.3,0016.67,0008.87,0008.01
2024-01-20 00:11:00,SystemResetWarning,0833.0,5.01,000.00,020.6,019.8,000.0,028.9,021.9,11.5,0003.3,0016.32,0008.87,0008.02
2024-01-20 00:12:00,SystemResetWarning,0833.0,5.00,000.00,020.6,019.7,000.0,028.9,021.9,11.5,0002.9,0015.07,0008.86,0008.02
2024-01-20 00:13:00,SystemResetWarning,0832.9,5.00,000.00,020.6,019.8,000.0,028.9,021.9,11.6,0002.4,0014.43,0008.87,0008.03
2024-01-20 00:14:00,SystemResetWarning,0832.9,5.00,000.00,020.6,019.8,000.0,028.9,021.9,11.5,0002.2,0014.50,0008.87,0008.03
2024-01-20 00:15:00,SystemResetWarning,0832.9,5.00,000.00,020.6,019.8,000.0,028.9,021.9,11.5,0002.4,0014.92,0008.86,0008.03
2024-01-20 00:16:00,SystemResetWarning,0832.9,4.99,000.00,020.6,019.8,000.0,028.9,021.9,11.6,0002.9,0015.32,0008.84,0008.02
2024-01-20 00:17:00,SystemResetWarning,0832.9,4.99,000.00,020.6,019.8,000.0,028.9,021.9,11.6,0002.9,0016.17,0008.84,0008.00
2024-01-20 00:18:00,SystemResetWarning,0833.1,4.99,000.00,020.6,019.8,000.0,028.9,021.9,11.6,0002.9,0017.11,0008.82,0007.98
2024-01-20 00:19:00,SystemResetWarning,0833.1,5.00,000.00,020.6,019.8,000.0,028.9,021.9,11.7,0002.8,0017.89,0008.78,0007.96
2024-01-20 00:20:00,SystemResetWarning,0833.0,5.01,000.00,020.6,019.8,000.0,028.9,021.9,11.8,0000.3,0017.98,0008.77,0007.94
2024-01-20 00:21:00,SystemResetWarning,0833.0,5.00,000.00,020.6,019.8,000.0,028.9,021.9,11.8,0002.1,0017.77,0008.75,0007.92
2024-01-20 00:22:00,SystemResetWarning,0832.9,5.01,000.00,020.6,019.8,000.0,028.9,021.9,11.9,0003.0,0017.04,0008.73,0007.89
2024-01-20 00:23:00,SystemResetWarning,0832.9,5.01,000.00,020.6,019.8,000.0,028.9,021.8,12.0,0003.2,0017.14,0008.75,0007.87
2024-01-20 00:24:00,SystemResetWarning,0832.9,4.99,000.00,020.5,019.8,000.0,028.9,021.8,12.0,0003.3,0016.71,0008.72,0007.86
2024-01-20 00:25:00,SystemResetWarning,0833.0,4.99,000.00,020.5,019.8,000.0,028.9,021.7,12.1,0003.3,0017.05,0008.73,0007.88
2024-01-20 00:26:00,SystemResetWarning,0833.0,5.01,000.00,020.5,019.7,000.0,028.9,021.7,12.3,0003.4,0016.89,0008.77,0007.90
2024-01-20 00:27:00,SystemResetWarning,0832.9,5.00,000.00,020.5,019.7,000.0,028.9,021.7,12.4,0003.2,0016.31,0008.75,0007.90
2024-01-20 00:28:00,SystemResetWarning,0833.0,5.00,000.00,020.5,019.7,000.0,028.9,021.6,12.4,0002.8,0016.33,0008.72,0007.91
2024-01-20 00:29:00,SystemResetWarning,0833.0,5.00,000.00,020.4,019.7,000.0,028.9,021.7,12.6,0002.9,0014.92,0008.63,0007.91
2024-01-20 00:30:00,SystemResetWarning,0833.0,4.99,000.00,020.4,019.7,000.0,028.8,021.7,12.7,0002.8,0014.77,0008.67,0007.92
2024-01-20 00:31:00,SystemResetWarning,0833.0,5.00,000.00,020.4,019.7,000.0,028.8,021.7,12.8,0002.4,0014.52,0008.67,0007.93
2024-01-20 00:32:00,SystemResetWarning,0833.0,5.00,000.00,020.4,019.7,000.0,028.8,021.7,12.8,0002.0,0014.54,0008.68,0007.95
2024-01-20 00:33:00,SystemResetWarning,0833.1,5.01,000.00,020.4,019.7,000.0,028.8,021.7,12.8,0002.1,0014.63,0008.69,0007.98
2024-01-20 00:34:00,SystemResetWarning,0833.0,5.01,000.00,020.4,019.7,000.0,028.8,021.7,12.9,0002.2,0014.49,0008.69,0008.02
2024-01-20 00:35:00,SystemResetWarning,0833.1,5.00,000.00,020.4,019.7,000.0,028.8,021.7,12.9,0002.8,0014.61,0008.70,0008.04
2024-01-20 00:36:00,SystemResetWarning,0833.0,4.99,000.00,020.4,019.7,000.0,028.8,021.7,12.9,0003.0,0014.60,0008.73,0008.04
2024-01-20 00:37:00,SystemResetWarning,0833.1,4.99,000.00,020.4,019.7,000.0,028.8,021.7,12.9,0002.9,0014.28,0008.73,0008.04
2024-01-20 00:38:00,SystemResetWarning,0833.0,5.00,000.00,020.4,019.7,000.0,028.8,021.7,13.0,0002.5,0013.93,0008.71,0008.05
2024-01-20 00:39:00,SystemResetWarning,0833.1,5.01,000.00,020.4,019.7,000.0,028.8,021.7,13.0,0002.6,0013.81,0008.75,0008.07
2024-01-20 00:40:00,SystemResetWarning,0833.0,5.01,000.00,020.4,019.6,000.0,028.8,021.7,13.0,0002.5,0014.29,0008.86,0008.10
2024-01-20 00:41:00,SystemResetWarning,0833.0,5.00,000.00,020.4,019.6,000.0,028.8,021.7,13.0,0002.7,0013.87,0008.93,0008.13
2024-01-20 00:42:00,SystemResetWarning,0833.3,4.99,000.00,020.4,019.6,000.0,028.8,021.7,13.0,0002.7,0013.82,0009.00,0008.18
2024-01-20 00:43:00,SystemResetWarning,0833.1,5.00,000.00,020.4,019.6,000.0,028.8,021.7,13.0,0003.0,0014.09,0009.06,0008.22
2024-01-20 00:44:00,SystemResetWarning,0833.2,4.99,000.00,020.4,019.6,000.0,028.8,021.7,13.0,0003.3,0014.18,0009.14,0008.22
2024-01-20 00:45:00,SystemResetWarning,0833.2,4.99,000.00,020.4,019.6,000.0,028.8,021.7,13.0,0003.4,0014.73,0009.21,0008.24
2024-01-20 00:46:00,SystemResetWarning,0833.0,4.99,000.00,020.4,019.5,000.0,028.8,021.7,13.0,0003.5,0014.82,0009.25,0008.24
2024-01-20 00:47:00,SystemResetWarning,0833.3,5.00,000.00,020.4,019.5,000.0,028.8,021.7,13.0,0003.5,0014.93,0009.31,0008.27
2024-01-20 00:48:00,SystemResetWarning,0833.3,5.00,000.00,020.4,019.5,000.0,028.8,021.7,12.9,0003.4,0016.58,0009.40,0008.30
2024-01-20 00:49:00,SystemResetWarning,0833.1,5.00,000.00,020.4,019.5,000.0,028.8,021.7,13.0,0003.5,0017.68,0009.55,0008.34
2024-01-20 00:50:00,SystemResetWarning,0833.0,5.00,000.00,020.4,019.5,000.0,028.7,021.7,13.0,0003.3,0017.73,0009.59,0008.37
2024-01-20 00:51:00,SystemResetWarning,0833.0,5.00,000.00,020.4,019.5,000.0,028.7,021.6,13.0,0003.3,0017.43,0009.55,0008.40
2024-01-20 00:52:00,SystemResetWarning,0833.0,5.00,000.00,020.4,019.5,000.0,028.7,021.6,13.0,0003.4,0017.83,0009.53,0008.41
2024-01-20 00:53:00,SystemResetWarning,0833.0,4.99,000.00,020.4,019.5,000.0,028.7,021.6,13.1,0003.4,0019.68,0009.55,0008.41
2024-01-20 00:54:00,SystemResetWarning,0833.0,4.99,000.00,020.3,019.5,000.0,028.7,021.6,13.1,0003.3,0019.81,0009.52,0008.40
2024-01-20 00:55:00,SystemResetWarning,0833.0,5.01,000.00,020.3,019.5,000.0,028.7,021.6,13.1,0002.6,0019.57,0009.44,0008.39
2024-01-20 00:56:00,SystemResetWarning,0833.1,5.01,000.00,020.3,019.4,000.0,028.7,021.6,13.1,0002.1,0019.21,0009.42,0008.40
2024-01-20 00:57:00,SystemResetWarning,0833.3,5.01,000.00,020.3,019.4,000.0,028.7,021.6,13.1,0001.8,0019.46,0009.46,0008.39
2024-01-20 00:58:00,SystemResetWarning,0833.1,5.00,000.00,020.3,019.4,000.0,028.7,021.6,13.1,0001.7,0019.30,0009.40,0008.35
2024-01-20 00:59:00,SystemResetWarning,0833.2,5.00,000.00,020.3,019.4,000.0,028.7,021.6,13.1,0001.9,0017.95,0009.29,0008.31
